period_start,C,m1,H,J0,J1,J2,J3,J4,J5,JA,JB,JC,JD,JJ,JK,JN,#
2016-07-28 00:02:25,0.00,0.51,0.00,25.87,29.35,32.01,14.38,47.83,1018.43,2029.71,3244.00,2928.71,3314.05,600.46,591.87,57.75,0000 0000 0000 0000 000000
2016-07-28 00:07:26,-0.03,0.51,0.00,25.90,29.37,32.05,14.28,47.86,1018.24,2029.30,3244.00,2928.53,3314.01,600.05,591.34,57.80,0000 0000 0000 0000 000000
2016-07-28 00:12:27,0.01,0.51,0.00,25.91,29.37,32.02,14.34,47.73,1018.15,2029.26,3244.00,2928.63,3314.01,600.08,591.25,57.85,0000 0000 0000 0000 000000
2016-07-28 00:17:28,-0.01,0.51,0.00,25.92,29.39,32.05,14.30,47.82,1018.13,2029.09,3244.00,2928.40,3314.00,599.53,590.64,57.90,0000 0000 0000 0000 000000
2016-07-28 00:22:30,0.01,0.51,0.00,25.89,29.40,32.12,14.32,47.73,1018.11,2029.05,3243.84,2928.21,3313.90,599.93,591.18,57.95,0000 0000 0000 0000 000000
2016-07-28 00:27:31,0.02,0.51,0.00,25.82,29.40,32.03,14.38,47.82,1018.09,2029.02,3243.25,2927.99,3313.22,599.81,591.12,58.00,0000 0000 0000 0000 000000
2016-07-28 00:32:32,0.00,0.51,0.00,25.84,29.42,31.91,14.28,47.67,1018.09,2029.01,3243.09,2927.99,3313.04,599.57,590.81,58.05,0000 0000 0000 0000 000000
2016-07-28 00:37:33,0.00,0.51,0.00,25.94,29.43,31.88,14.39,47.88,1018.09,2029.00,3243.01,2927.96,3313.00,600.30,591.38,58.10,0000 0000 0000 0000 000000
2016-07-28 00:42:35,0.02,0.51,0.00,25.82,29.45,31.93,14.35,48.06,1018.10,2029.00,3242.83,2927.50,3312.79,600.03,591.29,58.15,0000 0000 0000 0000 000000
2016-07-28 00:47:36,0.04,0.51,0.00,25.62,29.47,31.99,14.31,48.10,1018.10,2029.00,3242.04,2926.42,3312.01,599.36,591.01,58.20,0000 0000 0000 0000 000000
2016-07-28 00:52:38,0.00,0.51,0.00,25.90,29.51,32.03,14.26,47.88,1018.11,2029.00,3241.99,2926.05,3311.80,600.01,591.12,58.25,0000 0000 0000 0000 000000
2016-07-28 00:57:39,0.01,0.51,0.00,25.94,29.54,32.11,14.32,47.91,1018.10,2028.98,3241.95,2926.00,3311.19,599.72,590.78,58.30,0000 0000 0000 0000 000000
2016-07-28 01:02:40,0.01,0.52,0.00,25.91,29.58,32.21,14.39,48.08,1018.20,2028.97,3241.38,2925.99,3311.01,600.05,591.38,58.35,0000 0000 0000 0000 000000
2016-07-28 01:07:42,-0.00,0.52,0.00,25.93,29.61,32.32,14.28,47.97,1018.20,2028.91,3241.00,2925.91,3311.00,599.83,590.96,58.40,0000 0000 0000 0000 000000
2016-07-28 01:12:43,-0.03,0.51,0.00,25.95,29.63,32.36,14.36,47.77,1018.26,2028.59,3241.00,2925.79,3310.98,599.91,591.11,58.45,0000 0000 0000 0000 000000
2016-07-28 01:17:44,-0.02,0.51,0.00,25.95,29.65,32.42,14.47,47.92,1018.34,2028.23,3241.00,2925.41,3310.85,600.33,591.38,58.50,0000 0000 0000 0000 000000
2016-07-28 01:22:45,0.00,0.51,0.00,25.95,29.67,32.47,14.32,47.88,1018.29,2028.07,3240.99,2925.12,3310.43,599.86,591.01,58.56,0000 0000 0000 0000 000000
2016-07-28 01:27:46,0.02,0.51,0.00,25.96,29.67,32.54,14.31,47.75,1018.37,2028.07,3240.23,2925.01,3310.05,599.83,590.98,58.61,0000 0000 0000 0000 000000
2016-07-28 01:32:48,-0.01,0.51,0.00,25.97,29.69,32.57,14.36,47.76,1018.30,2028.04,3240.01,2925.00,3310.01,599.96,591.00,58.66,0000 0000 0000 0000 000000
2016-07-28 01:37:49,-0.00,0.51,0.00,25.97,29.70,32.56,14.38,47.77,1018.37,2028.00,3240.01,2924.99,3310.00,600.24,591.34,58.71,0000 0000 0000 0000 000000
2016-07-28 01:42:50,0.00,0.51,0.00,25.97,29.70,32.60,14.34,47.77,1018.36,2028.02,3240.00,2924.97,3309.98,599.64,590.80,58.76,0000 0000 0000 0000 000000
2016-07-28 01:47:51,0.00,0.51,0.00,25.98,29.70,32.56,14.45,47.91,1018.49,2028.00,3240.00,2924.97,3309.98,600.08,591.31,58.81,0000 0000 0000 0000 000000
2016-07-28 01:52:52,0.01,0.52,0.00,25.99,29.70,32.54,14.34,47.92,1018.50,2028.00,3239.87,2924.75,3309.86,599.62,590.77,58.86,0000 0000 0000 0000 000000
2016-07-28 01:57:53,-0.01,0.51,0.00,26.00,29.70,32.51,14.35,47.79,1018.49,2028.00,3239.94,2924.82,3309.91,600.43,591.60,58.91,0000 0000 0000 0000 000000
2016-07-28 02:02:55,0.02,0.52,0.00,26.01,29.70,32.54,14.36,47.79,1018.36,2028.00,3239.95,2924.48,3309.61,599.87,590.83,58.96,0000 0000 0000 0000 000000
2016-07-28 02:07:56,-0.01,0.52,0.00,26.01,29.70,32.54,14.32,47.93,1018.20,2028.00,3239.95,2924.47,3309.37,599.90,590.77,59.01,0000 0000 0000 0000 000000
2016-07-28 02:12:57,0.01,0.52,0.00,26.02,29.70,32.52,14.33,47.83,1018.17,2028.00,3239.98,2924.44,3309.35,599.94,590.92,59.06,0000 0000 0000 0000 000000
2016-07-28 02:17:58,0.01,0.52,0.00,26.03,29.70,32.51,14.31,47.76,1018.12,2027.99,3239.98,2924.20,3309.09,599.88,590.81,59.11,0000 0000 0000 0000 000000
2016-07-28 02:23:00,-0.00,0.52,0.00,26.04,29.70,32.49,14.35,47.77,1018.10,2027.98,3239.97,2924.24,3309.07,599.97,590.90,59.16,0000 0000 0000 0000 000000
2016-07-28 02:28:01,0.00,0.52,0.00,26.06,29.70,32.47,14.46,48.10,1018.14,2027.99,3239.94,2924.20,3309.10,600.51,591.28,59.21,0000 0000 0000 0000 000000
2016-07-28 02:33:02,0.00,0.52,0.00,26.07,29.70,32.47,14.36,47.85,1018.18,2027.99,3239.89,2924.09,3309.04,600.33,591.13,59.26,0000 0000 0000 0000 000000
2016-07-28 02:38:03,0.00,0.52,0.00,26.08,29.72,32.47,14.34,47.90,1018.12,2027.99,3239.74,2924.05,3309.02,599.96,590.78,59.31,0000 0000 0000 0000 000000
2016-07-28 02:43:05,0.01,0.52,0.00,26.10,29.72,32.43,14.29,47.92,1018.12,2027.99,3239.19,2924.01,3309.01,599.57,590.31,59.36,0000 0000 0000 0000 000000
2016-07-28 02:48:06,0.00,0.52,0.00,26.11,29.72,32.44,14.31,47.78,1018.11,2027.99,3239.08,2924.01,3309.00,600.05,590.75,59.41,0000 0000 0000 0000 000000
2016-07-28 02:53:08,-0.00,0.52,0.00,26.11,29.72,32.41,14.33,47.88,1018.15,2027.98,3239.02,2924.00,3309.00,599.82,590.55,59.46,0000 0000 0000 0000 000000
2016-07-28 02:58:09,0.00,0.52,0.00,26.12,29.73,32.40,14.38,48.02,1018.16,2027.98,3239.00,2924.00,3309.00,600.15,590.77,59.51,0000 0000 0000 0000 000000
2016-07-28 03:03:10,0.00,0.52,0.00,26.14,29.75,32.47,14.41,47.98,1018.10,2027.97,3239.00,2924.00,3308.99,599.82,590.74,59.57,0000 0000 0000 0000 000000
2016-07-28 03:08:11,-0.00,0.52,0.00,26.13,29.75,32.44,14.38,47.85,1018.10,2027.99,3238.99,2923.99,3308.98,600.07,590.65,59.62,0000 0000 0000 0000 000000
2016-07-28 03:13:12,0.00,0.52,0.00,26.15,29.75,32.45,14.40,47.85,1018.10,2027.97,3238.98,2923.97,3308.86,600.40,591.03,59.67,0000 0000 0000 0000 000000
2016-07-28 03:18:14,0.00,0.52,0.00,26.17,29.77,32.46,14.35,48.03,1018.25,2027.96,3238.95,2923.96,3308.76,599.91,590.54,59.72,0000 0000 0000 0000 000000
2016-07-28 03:23:15,0.01,0.52,0.00,26.18,29.77,32.41,14.38,47.93,1018.54,2027.92,3238.46,2923.87,3308.37,599.88,590.64,59.77,0000 0000 0000 0000 000000
2016-07-28 03:28:16,0.02,0.52,0.00,26.20,29.77,32.42,14.40,47.83,1018.56,2027.94,3238.07,2923.52,3308.09,599.77,590.64,59.82,0000 0000 0000 0000 000000
2016-07-28 03:33:17,-0.01,0.52,0.00,26.21,29.78,32.38,14.28,47.68,1018.55,2027.82,3238.06,2923.24,3308.01,599.72,590.49,59.87,0000 0000 0000 0000 000000
2016-07-28 03:38:19,0.00,0.52,0.00,26.23,29.80,32.44,14.37,47.82,1018.56,2027.72,3238.01,2923.08,3308.01,600.12,591.04,59.92,0000 0000 0000 0000 000000
2016-07-28 03:43:20,-0.03,0.52,0.00,26.23,29.80,32.44,14.34,47.85,1018.57,2027.46,3238.01,2923.03,3308.00,600.18,590.67,59.97,0000 0000 0000 0000 000000
2016-07-28 03:48:21,-0.01,0.52,0.00,26.24,29.81,32.41,14.38,47.88,1018.57,2027.25,3238.00,2923.00,3307.99,599.97,590.69,60.02,0000 0000 0000 0000 000000
2016-07-28 03:53:22,0.00,0.52,0.00,26.26,29.82,32.42,14.28,47.80,1018.57,2027.25,3237.99,2923.00,3307.99,599.75,590.40,60.07,0000 0000 0000 0000 000000
2016-07-28 03:58:23,0.00,0.50,0.00,26.27,29.83,32.42,12.76,41.92,1018.57,2027.32,3247.22,2929.88,3316.15,531.76,519.71,0.00,0000 0000 0000 0000 000002
2016-07-28 04:03:25,-0.01,0.00,0.00,26.27,29.85,32.45,14.30,46.83,1018.57,2028.00,3457.89,3058.16,3492.79,599.32,589.95,0.01,0000 0000 0000 0000 000000
2016-07-28 04:08:26,-0.00,0.01,0.00,26.28,29.85,32.43,14.32,46.95,1018.56,2027.98,3443.18,3041.21,3477.59,600.11,590.69,0.06,0000 0000 0000 0000 000000
2016-07-28 04:13:28,0.00,0.01,0.00,26.28,29.87,32.46,14.40,47.03,1018.55,2027.96,3442.22,3041.00,3476.93,600.42,591.04,0.11,0000 0000 0000 0000 000000
2016-07-28 04:18:29,0.00,0.01,0.00,26.29,29.87,32.48,14.41,47.08,1018.55,2027.93,3441.88,3040.98,3476.13,600.29,590.90,0.16,0000 0000 0000 0000 000000
2016-07-28 04:23:30,0.01,0.01,0.00,26.29,29.88,32.49,14.34,47.02,1018.57,2027.95,3441.15,3040.96,3476.00,599.97,590.55,0.21,0000 0000 0000 0000 000000
2016-07-28 04:28:31,0.00,0.01,0.00,26.31,29.90,32.49,14.32,47.05,1018.57,2027.91,3441.00,3040.92,3475.98,600.07,590.74,0.26,0000 0000 0000 0000 000000
2016-07-28 04:33:33,0.01,0.01,0.00,26.33,29.90,32.46,14.30,47.14,1018.56,2027.81,3440.95,3040.35,3475.37,599.75,590.29,0.31,0000 0000 0000 0000 000000
2016-07-28 04:38:34,0.01,0.01,0.00,26.33,29.90,32.52,14.35,47.15,1018.56,2027.83,3440.59,3040.05,3475.01,600.13,590.61,0.36,0000 0000 0000 0000 000000
2016-07-28 04:43:35,-0.01,0.01,0.00,26.33,29.92,32.51,14.27,47.09,1018.57,2027.69,3440.09,3040.00,3474.99,599.83,590.43,0.41,0000 0000 0000 0000 000000
2016-07-28 04:48:36,0.00,0.01,0.00,26.35,29.92,32.49,14.32,47.06,1018.57,2027.59,3440.00,3039.99,3474.30,599.99,590.55,0.46,0000 0000 0000 0000 000000
2016-07-28 04:53:37,-0.01,0.01,0.00,26.35,29.93,32.49,14.30,47.16,1018.57,2027.52,3439.98,3039.98,3474.05,600.03,590.52,0.51,0000 0000 0000 0000 000000
2016-07-28 04:58:39,0.00,0.01,0.00,26.37,29.95,32.46,14.25,47.05,1018.57,2027.47,3439.75,3039.96,3474.01,599.57,590.11,0.56,0000 0000 0000 0000 000000
2016-07-28 05:03:40,-0.01,0.01,0.00,26.37,29.95,32.52,14.29,47.15,1018.57,2027.20,3439.20,3039.87,3473.99,599.82,590.35,0.61,0000 0000 0000 0000 000000
2016-07-28 05:08:41,0.03,0.01,0.00,26.38,29.96,32.52,14.33,47.13,1018.57,2027.24,3439.02,3039.18,3473.36,600.12,590.56,0.66,0000 0000 0000 0000 000000
2016-07-28 05:13:43,-0.01,0.01,0.00,26.38,29.97,32.53,14.34,47.06,1018.57,2027.12,3438.98,3039.01,3473.00,600.32,590.75,0.72,0000 0000 0000 0000 000000
2016-07-28 05:18:44,0.03,0.01,0.00,26.40,29.97,32.53,14.30,47.17,1018.57,2027.08,3438.47,3038.53,3472.52,599.79,590.20,0.77,0000 0000 0000 0000 000000
2016-07-28 05:23:45,0.20,0.02,0.00,26.39,29.98,32.55,14.30,46.98,1018.56,2027.04,3435.21,3035.22,3468.78,599.88,590.33,0.82,0000 0000 0000 0000 000000
2016-07-28 05:28:46,0.00,0.02,0.00,26.39,30.00,32.50,14.36,47.03,1018.57,2027.03,3435.00,3035.00,3468.10,600.04,590.42,0.87,0000 0000 0000 0000 000000
2016-07-28 05:33:48,-0.00,0.02,0.00,26.41,30.00,32.59,14.27,46.91,1018.57,2027.00,3434.99,3034.98,3468.00,600.01,590.39,0.92,0000 0000 0000 0000 000000
2016-07-28 05:38:49,0.00,0.02,0.00,26.41,30.01,32.59,14.29,47.03,1018.57,2027.02,3434.93,3034.98,3468.00,599.92,590.38,0.97,0000 0000 0000 0000 000000
2016-07-28 05:43:51,0.01,0.02,0.00,26.41,30.02,32.61,14.34,47.09,1018.57,2027.00,3434.44,3034.84,3467.94,599.94,590.45,1.02,0000 0000 0000 0000 000000
2016-07-28 05:48:52,-0.00,0.02,0.00,26.43,30.02,32.62,14.38,47.12,1018.57,2027.00,3434.17,3034.81,3467.92,600.17,590.41,1.07,0000 0000 0000 0000 000000
2016-07-28 05:53:53,0.03,0.03,0.00,26.42,30.04,32.62,14.37,47.11,1018.57,2027.00,3434.03,3034.34,3467.42,599.86,590.28,1.12,0000 0000 0000 0000 000000
2016-07-28 05:58:54,0.00,0.03,0.00,26.41,30.05,32.65,14.37,47.13,1018.57,2026.99,3434.00,3034.07,3467.05,600.14,590.54,1.17,0000 0000 0000 0000 000000
2016-07-28 06:03:56,0.00,0.03,0.00,26.43,30.05,32.67,14.34,47.11,1018.55,2026.99,3433.99,3034.01,3467.00,600.02,590.35,1.22,0000 0000 0000 0000 000000
2016-07-28 06:08:57,0.00,0.03,0.00,26.42,30.05,32.68,14.29,47.14,1018.55,2026.99,3433.97,3034.00,3467.00,600.12,590.46,1.27,0000 0000 0000 0000 000000
2016-07-28 06:13:58,0.00,0.03,0.00,26.43,30.07,32.68,14.34,47.13,1018.55,2026.98,3433.93,3034.00,3467.00,600.00,590.28,1.32,0000 0000 0000 0000 000000
2016-07-28 06:18:59,-0.00,0.03,0.00,26.43,30.07,32.67,14.35,46.93,1018.54,2026.98,3433.85,3034.00,3466.97,600.23,590.45,1.37,0000 0000 0000 0000 000000
2016-07-28 06:24:00,0.01,0.03,0.00,26.44,30.07,32.71,14.25,46.88,1018.52,2026.98,3433.33,3034.00,3466.90,599.63,590.04,1.42,0000 0000 0000 0000 000000
2016-07-28 06:29:02,0.01,0.03,0.00,26.46,30.08,32.74,14.29,47.14,1018.48,2026.96,3433.04,3033.96,3466.47,600.05,590.28,1.47,0000 0000 0000 0000 000000
2016-07-28 06:34:03,0.00,0.03,0.00,26.45,30.10,32.69,14.36,47.13,1018.54,2026.93,3433.00,3033.92,3466.08,600.05,590.38,1.52,0000 0000 0000 0000 000000
2016-07-28 06:39:04,-0.01,0.03,0.00,26.45,30.10,32.68,14.35,47.02,1018.46,2026.85,3433.00,3033.83,3466.01,600.02,590.25,1.57,0000 0000 0000 0000 000000
2016-07-28 06:44:06,0.00,0.03,0.00,26.47,30.10,32.72,14.28,46.98,1018.46,2026.90,3433.00,3033.67,3466.00,599.85,590.00,1.62,0000 0000 0000 0000 000000
2016-07-28 06:49:07,0.00,0.03,0.00,26.48,30.10,32.72,14.36,47.10,1018.50,2026.78,3432.94,3033.31,3466.00,600.15,590.33,1.67,0000 0000 0000 0000 000000
2016-07-28 06:54:08,0.00,0.03,0.00,26.48,30.12,32.73,14.39,47.00,1018.54,2026.72,3432.61,3033.08,3465.96,600.22,590.44,1.72,0000 0000 0000 0000 000000
2016-07-28 06:59:09,-0.01,0.03,0.00,26.48,30.12,32.76,14.31,46.98,1018.52,2026.47,3432.26,3033.06,3465.89,600.24,590.43,1.77,0000 0000 0000 0000 000000
2016-07-28 07:04:11,-0.00,0.03,0.00,26.50,30.12,32.74,14.30,47.11,1018.52,2026.49,3432.12,3033.09,3465.90,599.98,590.11,1.82,0000 0000 0000 0000 000000
2016-07-28 07:09:12,-0.00,0.03,0.00,26.51,30.12,32.74,14.33,46.95,1018.49,2026.34,3432.05,3033.05,3465.60,599.90,590.05,1.87,0000 0000 0000 0000 000000
2016-07-28 07:14:13,-0.00,0.03,0.00,26.55,30.13,32.76,14.21,46.81,1018.35,2026.27,3432.02,3033.02,3465.28,599.80,589.74,1.92,0000 0000 0000 0000 000000
2016-07-28 07:19:14,0.07,0.03,0.00,26.59,30.15,32.74,14.28,46.86,1018.29,2026.17,3431.42,3032.35,3464.25,599.85,589.74,1.97,0000 0000 0000 0000 000000
2016-07-28 07:24:16,0.07,0.03,0.00,26.60,30.15,32.71,14.35,46.88,1018.37,2026.13,3429.83,3030.33,3462.07,600.19,590.11,2.02,0000 0000 0000 0000 000000
2016-07-28 07:29:17,0.00,0.03,0.00,26.64,30.15,32.69,14.25,46.73,1018.43,2026.05,3429.46,3030.08,3461.99,599.88,589.74,2.07,0000 0000 0000 0000 000000
2016-07-28 07:34:19,0.00,0.03,0.00,26.66,30.16,32.68,14.35,46.80,1018.46,2026.02,3429.05,3030.00,3461.93,599.97,589.74,2.12,0000 0000 0000 0000 000000
2016-07-28 07:39:20,0.00,0.03,0.00,26.70,30.17,32.67,14.31,46.85,1018.53,2026.02,3429.02,3030.00,3461.81,600.34,590.17,2.17,0000 0000 0000 0000 000000
2016-07-28 07:44:21,0.00,0.03,0.00,26.71,30.17,32.66,14.27,46.73,1018.52,2026.01,3429.00,3030.00,3461.54,600.14,589.75,2.22,0000 0000 0000 0000 000000
2016-07-28 07:49:22,0.14,0.04,0.00,26.73,30.19,32.67,14.24,46.83,1018.54,2026.00,3427.79,3028.69,3459.80,599.95,589.66,2.27,0000 0000 0000 0000 000000
2016-07-28 07:54:23,0.03,0.04,0.00,26.76,30.20,32.68,14.32,46.74,1018.54,2026.00,3426.09,3027.06,3458.03,600.15,589.85,2.32,0000 0000 0000 0000 000000
2016-07-28 07:59:24,0.00,0.04,0.00,26.79,30.21,32.69,14.29,46.67,1018.56,2026.00,3426.01,3027.01,3458.00,600.07,589.77,2.37,0000 0000 0000 0000 000000
2016-07-28 08:04:25,0.00,0.04,0.00,26.81,30.22,32.69,14.20,46.77,1018.57,2026.00,3426.00,3027.00,3458.00,600.05,589.78,2.42,0000 0000 0000 0000 000000
2016-07-28 08:09:26,0.00,0.04,0.00,26.83,30.24,32.70,14.27,46.72,1018.57,2026.00,3425.99,3027.00,3457.95,600.13,589.67,2.47,0000 0000 0000 0000 000000
2016-07-28 08:14:27,0.00,0.04,0.00,26.85,30.25,32.70,14.28,46.73,1018.57,2025.99,3425.99,3026.99,3457.75,600.08,589.59,2.52,0000 0000 0000 0000 000000
2016-07-28 08:19:28,0.01,0.04,0.00,26.89,30.27,32.72,14.24,46.70,1018.57,2025.98,3425.86,3026.94,3457.22,599.75,589.16,2.57,0000 0000 0000 0000 000000
2016-07-28 08:24:29,0.01,0.05,0.00,26.91,30.27,32.74,14.25,46.83,1018.57,2025.97,3425.47,3026.80,3457.04,600.02,589.40,2.62,0000 0000 0000 0000 000000
2016-07-28 08:29:30,0.02,0.05,0.00,26.94,30.30,32.75,14.23,46.93,1018.56,2025.94,3425.05,3026.27,3457.00,599.83,589.12,2.67,0000 0000 0000 0000 000000
2016-07-28 08:34:31,-0.02,0.05,0.00,26.94,30.30,32.76,14.23,46.88,1018.56,2025.74,3425.00,3026.03,3456.97,599.71,589.04,2.72,0000 0000 0000 0000 000000
2016-07-28 08:39:32,-0.03,0.04,0.00,26.97,30.32,32.79,14.27,46.82,1018.54,2025.29,3424.99,3026.00,3456.71,600.25,589.50,2.77,0000 0000 0000 0000 000000
2016-07-28 08:44:34,-0.00,0.04,0.00,26.98,30.34,32.78,14.28,46.87,1018.55,2025.14,3424.93,3026.00,3456.27,600.24,589.56,2.82,0000 0000 0000 0000 000000
2016-07-28 08:49:35,0.00,0.04,0.00,27.01,30.35,32.82,14.29,46.91,1018.57,2025.07,3424.67,3025.98,3456.02,599.86,589.09,2.87,0000 0000 0000 0000 000000
2016-07-28 08:54:37,0.00,0.04,0.00,27.03,30.37,32.83,14.29,46.78,1018.57,2025.06,3424.17,3025.94,3456.00,600.35,589.50,2.92,0000 0000 0000 0000 000000
2016-07-28 08:59:38,0.01,0.04,0.00,27.05,30.38,32.86,14.29,46.83,1018.57,2025.01,3424.02,3025.56,3455.98,600.10,589.17,2.97,0000 0000 0000 0000 000000
2016-07-28 09:04:39,0.16,0.05,0.00,27.08,30.40,32.86,14.28,47.13,1018.57,2025.00,3421.83,3023.81,3453.97,599.73,588.79,3.02,0000 0000 0000 0000 000000
2016-07-28 09:09:41,0.05,0.05,0.00,27.10,30.42,32.88,14.28,46.88,1018.57,2025.00,3419.51,3022.06,3451.89,599.90,588.92,3.07,0000 0000 0000 0000 000000
2016-07-28 09:14:42,0.27,0.07,0.00,27.13,30.43,32.88,14.22,46.75,1018.57,2025.00,3413.72,3018.33,3448.03,599.85,588.83,3.12,0000 0000 0000 0000 000000
2016-07-28 09:19:43,0.01,0.07,0.00,27.13,30.45,32.89,14.30,46.73,1018.57,2025.00,3413.09,3018.00,3447.25,600.19,589.15,3.18,0000 0000 0000 0000 000000
2016-07-28 09:24:44,0.24,0.07,0.00,27.15,30.47,32.93,14.31,46.87,1018.57,2025.00,3410.11,3015.83,3444.69,599.95,588.86,3.23,0000 0000 0000 0000 000000
2016-07-28 09:29:46,0.05,0.08,0.00,27.17,30.48,32.94,14.21,46.80,1018.57,2024.99,3406.99,3013.22,3442.07,600.09,589.06,3.28,0000 0000 0000 0000 000000
2016-07-28 09:34:47,0.00,0.09,0.00,27.21,30.50,32.98,14.25,46.90,1018.57,2024.94,3406.57,3013.01,3441.98,599.85,588.61,3.33,0000 0000 0000 0000 000000
2016-07-28 09:39:49,0.03,0.09,0.00,27.24,30.51,33.01,14.22,46.66,1018.57,2024.90,3405.87,3012.82,3441.63,599.78,588.64,3.38,0000 0000 0000 0000 000000
2016-07-28 09:44:50,0.06,0.09,0.00,27.25,30.53,32.99,14.21,46.68,1018.57,2024.83,3404.07,3011.82,3440.36,599.89,588.69,3.43,0000 0000 0000 0000 000000
2016-07-28 09:49:51,0.07,0.09,0.00,27.30,30.55,33.01,14.28,46.73,1018.57,2024.59,3401.59,3010.64,3439.08,600.19,588.83,3.48,0000 0000 0000 0000 000000
2016-07-28 09:54:53,0.02,0.09,0.00,27.32,30.56,33.03,14.21,46.74,1018.57,2024.31,3399.80,3009.93,3438.03,600.02,588.61,3.53,0000 0000 0000 0000 000000
2016-07-28 09:59:54,0.02,0.10,0.00,27.33,30.58,33.05,14.19,46.73,1018.57,2024.13,3399.04,3009.33,3437.65,599.95,588.58,3.58,0000 0000 0000 0000 000000
2016-07-28 10:04:55,0.01,0.10,0.00,27.33,30.60,33.07,14.27,46.92,1018.57,2024.04,3398.40,3009.00,3437.02,600.09,588.82,3.63,0000 0000 0000 0000 000000
2016-07-28 10:09:56,0.00,0.10,0.00,27.38,30.62,33.08,14.29,46.78,1018.57,2024.00,3398.01,3008.95,3436.99,600.16,588.64,3.68,0000 0000 0000 0000 000000
2016-07-28 10:14:58,0.00,0.10,0.00,27.40,30.64,33.08,14.22,46.92,1018.57,2024.00,3397.98,3008.73,3436.82,600.06,588.37,3.73,0000 0000 0000 0000 000000
2016-07-28 10:19:59,0.04,0.10,0.00,27.42,30.65,33.09,14.20,46.77,1018.57,2024.00,3397.28,3008.09,3436.13,599.78,588.24,3.78,0000 0000 0000 0000 000000
2016-07-28 10:25:00,0.05,0.10,0.00,27.44,30.67,33.13,14.31,46.70,1018.57,2023.99,3396.32,3007.45,3435.29,600.19,588.49,3.83,0000 0000 0000 0000 000000
2016-07-28 10:30:02,0.00,0.10,0.00,27.46,30.70,33.17,14.25,46.71,1018.57,2023.98,3395.72,3007.00,3434.99,600.27,588.59,3.88,0000 0000 0000 0000 000000
2016-07-28 10:35:03,0.01,0.10,0.00,27.50,30.72,33.20,14.15,46.77,1018.57,2023.98,3395.13,3007.00,3434.79,599.62,587.92,3.93,0000 0000 0000 0000 000000
2016-07-28 10:40:04,-0.00,0.10,0.00,27.50,30.74,33.24,14.24,46.89,1018.57,2023.82,3395.00,3006.99,3434.12,600.20,588.38,3.98,0000 0000 0000 0000 000000
2016-07-28 10:45:06,-0.03,0.10,0.00,27.50,30.76,33.27,14.31,46.97,1018.57,2023.33,3394.98,3006.72,3434.00,599.98,588.17,4.03,0000 0000 0000 0000 000000
2016-07-28 10:50:07,0.01,0.10,0.00,27.50,30.78,33.28,14.27,46.79,1018.57,2023.29,3394.96,3006.63,3434.00,600.02,588.28,4.08,0000 0000 0000 0000 000000
2016-07-28 10:55:09,0.00,0.10,0.00,27.47,30.80,33.30,14.19,46.73,1018.57,2023.16,3394.74,3006.23,3433.99,599.80,588.29,4.13,0000 0000 0000 0000 000000
2016-07-28 11:00:10,0.02,0.10,0.00,27.47,30.82,33.32,14.23,46.65,1018.57,2023.08,3394.06,3006.02,3433.33,600.27,588.38,4.18,0000 0000 0000 0000 000000
2016-07-28 11:05:11,0.04,0.10,0.00,27.44,30.84,33.35,14.25,46.58,1018.57,2023.02,3393.52,3005.58,3432.85,599.89,588.25,4.23,0000 0000 0000 0000 000000
2016-07-28 11:10:12,0.02,0.11,0.00,27.42,30.85,33.36,14.25,46.59,1018.57,2023.02,3392.94,3005.01,3432.06,600.10,588.46,4.28,0000 0000 0000 0000 000000
2016-07-28 11:15:14,0.01,0.11,0.00,27.46,30.86,33.36,14.22,46.48,1018.56,2023.00,3392.36,3004.95,3431.98,600.11,588.44,4.33,0000 0000 0000 0000 000000
2016-07-28 11:20:15,0.01,0.11,0.00,27.50,30.87,33.38,14.29,46.53,1018.57,2023.00,3392.01,3004.71,3431.88,600.29,588.54,4.38,0000 0000 0000 0000 000000
2016-07-28 11:25:16,0.01,0.11,0.00,27.52,30.88,33.38,14.21,46.54,1018.57,2023.00,3392.00,3004.39,3431.64,600.00,588.19,4.43,0000 0000 0000 0000 000000
2016-07-28 11:30:18,0.01,0.11,0.00,27.54,30.90,33.40,14.19,46.47,1018.57,2023.00,3392.00,3004.16,3431.25,599.85,588.00,4.48,0000 0000 0000 0000 000000
2016-07-28 11:35:19,0.00,0.11,0.00,27.55,30.90,33.41,14.19,46.41,1018.57,2023.00,3391.99,3004.05,3431.06,599.80,587.75,4.53,0000 0000 0000 0000 000000
2016-07-28 11:40:20,0.00,0.11,0.00,27.57,30.90,33.42,14.22,46.60,1018.57,2022.99,3391.92,3004.01,3431.02,600.04,588.21,4.58,0000 0000 0000 0000 000000
2016-07-28 11:45:21,0.00,0.11,0.00,27.58,30.92,33.45,14.22,46.57,1018.57,2022.99,3391.45,3004.00,3431.00,600.15,588.18,4.63,0000 0000 0000 0000 000000
2016-07-28 11:50:23,0.00,0.11,0.00,27.59,30.92,33.44,14.26,46.58,1018.57,2022.98,3391.09,3004.00,3430.98,600.16,588.25,4.68,0000 0000 0000 0000 000000
2016-07-28 11:55:24,0.00,0.11,0.00,27.55,30.92,33.44,14.24,46.61,1018.57,2022.98,3391.01,3003.97,3430.87,600.29,588.40,4.73,0000 0000 0000 0000 000000
2016-07-28 12:00:25,0.00,0.11,0.00,27.54,30.92,33.42,14.22,46.58,1018.57,2022.96,3391.00,3003.97,3430.70,599.77,587.88,4.78,0000 0000 0000 0000 000000
2016-07-28 12:05:26,0.00,0.11,0.00,27.51,30.92,33.45,14.22,46.60,1018.57,2022.97,3391.00,3003.97,3430.50,599.96,588.21,4.83,0000 0000 0000 0000 000000
2016-07-28 12:10:28,0.00,0.11,0.00,27.47,30.92,33.53,14.29,46.61,1018.57,2022.97,3391.00,3003.95,3430.28,600.15,588.38,4.88,0000 0000 0000 0000 000000
2016-07-28 12:15:29,0.00,0.11,0.00,27.43,30.92,33.53,14.21,46.54,1018.57,2022.96,3391.00,3003.93,3430.12,599.73,588.25,4.93,0000 0000 0000 0000 000000
2016-07-28 12:20:30,0.00,0.11,0.00,27.38,30.92,33.62,14.33,46.53,1018.57,2022.94,3391.00,3003.87,3430.07,600.27,588.67,4.98,0000 0000 0000 0000 000000
2016-07-28 12:25:31,0.00,0.11,0.00,27.32,30.92,33.60,14.31,46.73,1018.57,2022.97,3391.00,3003.91,3430.08,600.06,588.71,5.03,0000 0000 0000 0000 000000
2016-07-28 12:30:33,0.02,0.11,0.00,27.28,30.92,33.66,14.31,46.56,1018.57,2022.97,3390.50,3003.51,3430.00,600.14,588.74,5.08,0000 0000 0000 0000 000000
2016-07-28 12:35:34,0.01,0.11,0.00,27.25,30.92,33.67,14.30,46.68,1018.57,2022.97,3390.06,3003.15,3430.00,600.00,588.68,5.13,0000 0000 0000 0000 000000
2016-07-28 12:40:35,-0.00,0.11,0.00,27.24,30.92,33.68,14.23,46.58,1018.57,2022.97,3390.02,3003.09,3429.99,600.08,588.81,5.18,0000 0000 0000 0000 000000
2016-07-28 12:45:37,0.00,0.11,0.00,27.22,30.90,33.67,14.24,46.79,1018.57,2022.97,3390.01,3003.03,3429.99,599.87,588.73,5.23,0000 0000 0000 0000 000000
2016-07-28 12:50:38,0.00,0.11,0.00,27.21,30.90,33.73,14.27,46.73,1018.57,2022.98,3390.01,3003.08,3429.99,599.88,588.70,5.28,0000 0000 0000 0000 000000
2016-07-28 12:55:39,0.00,0.11,0.00,27.18,30.90,33.71,14.28,46.64,1018.57,2022.99,3390.03,3003.13,3429.99,599.81,588.55,5.33,0000 0000 0000 0000 000000